Location: Huppendorf
(49.9333°N, 11.1500°E)
Time: 18:18:04
(UTC+00:00)

Cosmos 1939 Rocket - Pass Details

Date: 27 February 2020
Orbit: 532 x 585 km, 97.4° (Epoch: 01 April)

Event Time Altitude Azimuth Distance (km) Brightness Sun altitude
Rises 17:28:35 0° 156° (SSE) 2,799 6.2 -6.4°
Reaches altitude 10° 17:30:44 10° 153° (SSE) 1,905 5.4 -6.8°
Maximum altitude 17:34:50 63° 73° (ENE) 659 2.9 -7.4°
Drops below altitude 10° 17:38:57 10° 353° (N) 1,916 5.6 -8.1°
Sets 17:41:07 0° 350° (N) 2,817 6.5 -8.5°
